Weather History for PHLI - July, 2013

Change the Weather History Date:

Wednesday, July 3, 2013

  Actual Average Record
Temperature  
Mean Temperature 76 °F 79 °F  
Max Temperature 81 °F 84 °F 87 °F (1981)
Min Temperature 71 °F 74 °F 66 °F (1968)
Degree Days  
Heating Degree Days 0 0  
Month to date heating degree days 0 0  
Since 1 June heating degree days 0 0  
Since 1 July heating degree days 0 0  
Cooling Degree Days 11 14  
Month to date cooling degree days 30 42  
Year to date cooling degree days 1494 1675  
Since 1 June cooling degree days 412 436  
Growing Degree Days 26 (Base 50)    
Moisture  
Dew Point 68 °F    
Average Humidity 79    
Maximum Humidity 90    
Minimum Humidity 67    
Precipitation  
Precipitation T in 0.05 in 0.46 in (1958)
Month to date precipitation 0.14 0.16  
Year to date precipitation 15.64 17.61  
Snow  
Snow 0.00 in - - ()
Month to date snowfall 0.0  
Since 1 June snowfall 0.0  
Since 1 July snowfall 0.0  
Snow Depth 0.00 in    
Sea Level Pressure  
Sea Level Pressure 30.00 in    
Wind  
Wind Speed 14 mph (ENE)    
Max Wind Speed 21 mph    
Max Gust Speed 23 mph    
Visibility 10 miles    
Events      
T = Trace of Precipitation, MM = Missing Value Source: NWS Daily Summary

Daily Weather History Graph

Daily Weather History Graph

Search for Another Location

Airport or City:

Trip Planner

Search our weather history database for the weather conditions in past years. The results will help you decide how hot, cold, wet, or windy it might be!

Date:

Astronomy

Jul. 03, 2013 Rise Set
Actual Time 5:58 AM HST 7:24 PM HST
Civil Twilight 5:33 AM HST 7:49 PM HST
Nautical Twilight 5:03 AM HST 8:19 PM HST
Astronomical Twilight 4:32 AM HST 8:50 PM HST
Moon 2:31 AM HST (7/3) 3:55 PM HST (7/3)
Length of Visible Light 14h 16m
Length of Day
13h 26m
Waning Crescent, 16% of the Moon is Illuminated
Jul 3
Waning Crescent
Jul 7
New
Jul 15
First Quarter
Jul 22
Full
Jul 29
Last Quarter

Hourly Weather History & Observations

Time (HST) Temp. Heat Index Dew Point Humidity Pressure Visibility Wind Dir Wind Speed Gust Speed Precip Events Conditions
12:53 AM 72.0 °F - 66.9 °F 84% 29.99 in 10.0 mi NE 16.1 mph - N/A   Scattered Clouds
1:53 AM 72.0 °F - 66.9 °F 84% 29.98 in 10.0 mi NE 15.0 mph - N/A   Partly Cloudy
2:53 AM 72.0 °F - 66.9 °F 84% 29.96 in 10.0 mi NE 15.0 mph - N/A   Partly Cloudy
3:53 AM 72.0 °F - 68.0 °F 87% 29.97 in 10.0 mi ENE 10.4 mph - N/A   Mostly Cloudy
4:53 AM 73.0 °F - 64.9 °F 76% 29.97 in 10.0 mi NE 13.8 mph - N/A   Mostly Cloudy
5:53 AM 73.0 °F - 68.0 °F 84% 29.98 in 10.0 mi ENE 15.0 mph - 0.00 in   Mostly Cloudy
6:53 AM 73.0 °F - 66.0 °F 79% 30.00 in 10.0 mi ENE 13.8 mph - N/A   Partly Cloudy
7:09 AM 73.4 °F - 66.2 °F 78% 30.01 in 10.0 mi East 10.4 mph - N/A   Partly Cloudy
7:53 AM 75.0 °F - 68.0 °F 79% 30.02 in 10.0 mi East 12.7 mph - N/A   Mostly Cloudy
8:53 AM 77.0 °F - 68.0 °F 74% 30.03 in 10.0 mi ENE 12.7 mph - N/A   Mostly Cloudy
9:08 AM 75.2 °F - 68.0 °F 78% 30.03 in 10.0 mi ENE 10.4 mph - N/A   Scattered Clouds
9:53 AM 77.0 °F - 69.1 °F 76% 30.03 in 10.0 mi ENE 13.8 mph - N/A   Partly Cloudy
10:53 AM 78.1 °F - 69.1 °F 74% 30.03 in 10.0 mi East 12.7 mph - N/A   Mostly Cloudy
11:53 AM 79.0 °F - 69.1 °F 72% 30.02 in 10.0 mi ENE 12.7 mph - N/A   Mostly Cloudy
12:53 PM 79.0 °F - 68.0 °F 69% 30.01 in 10.0 mi ENE 12.7 mph - N/A   Partly Cloudy
1:53 PM 80.1 °F 82.7 °F 68.0 °F 67% 30.00 in 10.0 mi ENE 12.7 mph - N/A   Partly Cloudy
2:53 PM 78.1 °F - 68.0 °F 71% 29.99 in 10.0 mi ENE 13.8 mph - N/A   Mostly Cloudy
3:53 PM 78.1 °F - 68.0 °F 71% 29.98 in 10.0 mi NE 15.0 mph - N/A   Partly Cloudy
4:53 PM 78.1 °F - 68.0 °F 71% 29.97 in 10.0 mi ENE 13.8 mph - N/A   Partly Cloudy
5:53 PM 75.9 °F - 69.1 °F 79% 29.98 in 10.0 mi ENE 12.7 mph - N/A   Partly Cloudy
6:53 PM 73.9 °F - 66.9 °F 79% 29.99 in 10.0 mi NE 12.7 mph - N/A   Partly Cloudy
7:53 PM 73.0 °F - 66.9 °F 81% 30.01 in 10.0 mi NE 11.5 mph - N/A   Scattered Clouds
8:53 PM 73.0 °F - 66.9 °F 81% 30.02 in 10.0 mi NE 11.5 mph - N/A   Scattered Clouds
9:43 PM 73.4 °F - 68.0 °F 83% 30.03 in 10.0 mi ENE 10.4 mph - N/A   Mostly Cloudy
9:53 PM 73.0 °F - 68.0 °F 84% 30.03 in 10.0 mi ENE 11.5 mph - N/A   Mostly Cloudy
10:53 PM 73.0 °F - 66.9 °F 81% 30.04 in 10.0 mi ENE 9.2 mph - N/A   Mostly Cloudy
11:53 PM 73.0 °F - 66.0 °F 79% 30.03 in 10.0 mi NE 9.2 mph - N/A   Clear